Volver al catálogo

GEESAT 6-08

ActivoComunicacionesLEO
NORAD 65720·PAYLOAD·🇨🇳 China

Lanzado Sep 24, 2025 desde Yellow Sea Launch Area

Loading…

Próximos Pases (próximas 24 horas)

TLE

ActualizadoSource: Space-Track

Época: Sep 14, 2026, 10:04 UTC

1 65720U 25214J   26257.41993538  .00001060  00000-0  15442-3 0  9994
2 65720  49.9902 254.9501 0009518 200.0316 160.0250 14.83592165 52753

Sigue GEESAT 6-08 en tiempo real con AllMySat

Download on the App Store